This demonstration page uses our WeatherBlox Daily Observations layout. Learn more.

Left ArrowRight Arrow

Hourly Observations for September 21, 2018

Temp ( °F °C ) Dew Point ( °F °C ) Humidity (%) Winds ( mph kmh ) Pressure ( in mb ) Visibility ( mi km ) Precip ( " mm )
12:53 am 00:53 Partly Cloudy 61 16.1 57 13.9 87 87 N 10 17 29.98 1015 10 16 0.00 0.00
1:53 am 01:53 Clear 60 15.6 55 12.8 84 84 N 13 20 30.00 1016 10 16 0.00 0.00
2:53 am 02:53 Clear 58 14.4 53 11.7 84 84 NNW 10 17 30.04 1017 10 16 0.00 0.00
3:53 am 03:53 Clear 57 13.9 53 11.7 87 87 NNW 9 15 30.07 1018 10 16 0.00 0.00
4:53 am 04:53 Clear 56 13.3 52 11.1 87 87 NNW 7 11 30.09 1019 10 16 0.00 0.00
5:53 am 05:53 Clear 54 12.2 51 10.6 90 90 NNW 6 9 30.14 1021 10 16 0.00 0.00
6:53 am 06:53 Clear 53 11.7 49 9.4 86 86 NNW 3 6 30.18 1022 10 16 0.00 0.00
7:53 am 07:53 Sunny 53 11.7 47 8.3 80 80 N 10 17 30.22 1023 10 16 0.00 0.00
8:53 am 08:53 Sunny 53 11.7 47 8.3 80 80 NNW 14 22 30.24 1024 10 16 0.00 0.00
9:53 am 09:53 Sunny 57 13.9 46 7.8 67 67 N 25 41 30.24 1024 10 16 0.00 0.00
10:53 am 10:53 Sunny 60 15.6 46 7.8 60 60 NNW 21 33 30.26 1025 10 16 0.00 0.00
11:53 am 11:53 Sunny 62 16.7 46 7.8 56 56 NNW 21 33 30.28 1025 10 16 0.00 0.00
12:53 pm 12:53 Sunny 64 17.8 46 7.8 52 52 N 20 31 30.28 1026 10 16 0.00 0.00
1:53 pm 13:53 Sunny 64 17.8 44 6.7 48 48 N 15 24 30.28 1026 10 16 0.00 0.00
2:53 pm 14:53 Sunny 65 18.3 44 6.7 47 47 N 16 26 30.27 1025 10 16 0.00 0.00
3:53 pm 15:53 Sunny 66 18.9 43 6.1 43 43 N 17 28 30.26 1025 10 16 0.00 0.00
4:53 pm 16:53 Sunny 65 18.3 44 6.7 47 47 N 15 24 30.26 1025 10 16 0.00 0.00
5:53 pm 17:53 Sunny 64 17.8 43 6.1 46 46 ENE 12 19 30.28 1025 10 16 0.00 0.00
6:53 pm 18:53 Sunny 62 16.7 44 6.7 52 52 NE 8 13 30.28 1025 10 16 0.00 0.00
7:53 pm 19:53 Clear 56 13.3 45 7.2 67 67 ENE 5 7 30.30 1026 10 16 0.00 0.00
8:53 pm 20:53 Clear 53 11.7 45 7.2 74 74 undefined N/A 30.32 1027 10 16 0.00 0.00
9:53 pm 21:53 Clear 52 11.1 44 6.7 75 75 E 7 11 30.34 1028 10 16 0.00 0.00
10:53 pm 22:53 Clear 50 10 44 6.7 80 80 E 6 9 30.35 1028 10 16 0.00 0.00
11:53 pm 23:53 Clear 49 9.4 43 6.1 80 80 E 5 7 30.34 1028 10 16 0.00 0.00

Powered by AerisWeather